Location: Newark
(37.9800°N, 91.3000°W)
Time: 10:15:43
(UTC+00:00)

STARS - Visible Passes

Search period start: 06 December 2019 00:00
Search period end: 16 December 2019 00:00
Orbit: 625 x 640 km, 98.3° (Epoch: 05 December)

Date Brightness Start Highest point End Pass type
(mag) Time Alt. Az. Time Alt. Az. Time Alt. Az.
06 Dec ? 12:28:07 10° ESE 12:30:46 16° ENE 12:33:26 10° NNE visible
10 Dec ? 12:17:09 10° E 12:18:43 12° ENE 12:20:17 10° NE visible
11 Dec ? 12:36:24 10° ESE 12:39:30 19° ENE 12:42:37 10° NNE visible
15 Dec ? 12:25:05 10° E 12:27:26 14° ENE 12:29:46 10° NNE visible
